Regional Weather Roundup
Issued by NWS

Home | Current Version | Previous Version | Graphics & Text | Print | Product List | Glossary On
Versions: 1 2 3 4 5 6 7 8 9 10 11 12 13 14 15 16 17 18 19 20 21 22 23 24 25 26 27 28 29 30 31 32 33 34 35 36 37 38 39 40 41 42 43 44 45 46 47 48 49 50
000
ASUS43 KMPX 310001
RWRMN
WEATHER ROUNDUP FOR MINNESOTA
NATIONAL WEATHER SERVICE TWIN CITIES/CHANHASSEN MN
700 PM CDT MON MAY 30 2016


NOTE: "FAIR" INDICATES FEW OR NO CLOUDS BELOW 12,000 FEET WITH NO
SIGNIFICANT WEATHER AND/OR OBSTRUCTIONS TO VISIBILITY. N/A MEANS
CURRENT SKY AND/OR WEATHER CONDITIONS ARE NOT AVAILABLE.

MNZ060>063-068>070-310100-
   Twin Cities Metro

CITY           SKY/WX    TMP DP  RH WIND       PRES   REMARKS
TWIN CITIES    PTSUNNY   80  51  36 SE6       29.88F
6HR MIN TEMP:  79; 6HR MAX TEMP:  84;

ST PAUL        MOSUNNY   78  52  40 SE8       29.89F
CRYSTAL        CLOUDY    79  50  36 SE6       29.87F
BLAINE         PTSUNNY   81  52  36 S6        29.89F
EDEN PRAIRIE   PTSUNNY   80  51  36 E6        29.87F
6HR MIN TEMP:  79; 6HR MAX TEMP:  84;

SOUTH ST PAUL  MOSUNNY   81  48  31 SE5       29.89S
LAKE ELMO      FAIR      79  52  38 SE7       29.91F
$$
MNZ001>005-007-008-013>017-022>024-027-028-310100-
   Northwest Minnesota

CITY           SKY/WX    TMP DP  RH WIND       PRES   REMARKS
BEMIDJI        RAIN      63  58  83 N7        29.90S
HALLOCK        CLOUDY    72  55  56 W14       29.84R
ROSEAU         CLOUDY    70  57  64 E13       29.87F
WARROAD        PTSUNNY   66  57  72 NE13G18   29.89F
THIEF RVR FALL CLOUDY    72  52  49 E3        29.87R
CROOKSTON      LGT RAIN  57  57 100 NE13G23   29.84F
FOSSTON        CLOUDY    73  55  53 E8        29.86R
DETROIT LAKES  CLOUDY    77  46  33 S9        29.85R
MOORHEAD       CLOUDY    79  54  41 SE20G31   29.78S
PARK RAPIDS    MOSUNNY   76  54  46 E14       29.87S
MAHNOMEN       FAIR      77  51  40 E8        29.82F
$$
MNZ006-009>011-018-025>026-310100-
   North Central Minnesota

CITY           SKY/WX    TMP DP  RH WIND       PRES   REMARKS
BAUDETTE       CLOUDY    73  48  41 E12       29.88F
FLAG ISLAND    MOSUNNY   70  52  52 E10       29.90S
INTL FALLS     MOSUNNY   73  46  38 E6        29.92F
6HR MIN TEMP:  71; 6HR MAX TEMP:  75;

WASKISH        CLOUDY    73  54  49 CALM      29.88S
BIG FORK       SUNNY     75  45  33 CALM      29.90F
LONGVILLE      CLOUDY    64  61  88 CALM      29.89F
GRAND RAPIDS   LGT RAIN  71  50  47 S10       29.93S
CRANE LAKE     SUNNY     73  43  33 CALM      29.95F
ORR            SUNNY     73  46  38 CALM      29.90F
COOK           SUNNY     73  46  38 NE6       29.93F
WALKER         FAIR      70  56  61 E6        29.88F
$$
MNZ012-019>021-037-310100-
   Northeast Minnesota

CITY           SKY/WX    TMP DP  RH WIND       PRES   REMARKS
DULUTH         CLOUDY    71  49  45 SE5       29.93S
6HR MIN TEMP:  71; 6HR MAX TEMP:  81;

ELY            MOSUNNY   73  41  31 NE5       29.95F
HIBBING        SUNNY     76  44  32 N6        29.91F
EVELETH        SUNNY     77  43  29 NE7       29.93F
DULUTH HARBOR  DRIZZLE   61  52  72 NE7       29.91F
TWO HARBORS      N/A     77  52  41 E3        29.91S
SILVER BAY     MOSUNNY   73  46  38 NE3       29.92F
GRAND MARAIS     N/A     55  41  59 SW3       29.94R
G MARAIS ARPRT SUNNY     68  39  34 NW6       29.99S
$$
MNZ029>031-032-039>041-046>048-054>057-064-310100-
   West Central Minnesota

CITY           SKY/WX    TMP DP  RH WIND       PRES   REMARKS
FERGUS FALLS   MOSUNNY   79  55  44 SE13      29.76S
WHEATON        SUNNY     84  54  34 SE13      29.78S
MORRIS         MOSUNNY   81  54  39 SE15      29.78F
ALEXANDRIA     CLOUDY    71  56  58 E10       29.85F
ELBOW LAKE     FAIR      76  56  51 SE16      29.80F
WADENA         PTSUNNY   79  52  38 SE16      29.85S
GLENWOOD       CLOUDY    81  52  36 SE17G23   29.84F
APPLETON       MOSUNNY   84  48  28 S10G22    29.78F
ORTONVILLE     MOSUNNY   82  52  34 S8G20     29.77F
MADISON        MOSUNNY   84  50  30 S13G21    29.77F
WILLMAR        FAIR      82  55  39 SE17      29.84F
$$
MNZ033>034-036-042>043-049>051-058-059-310100-
   Central Minnesota

CITY           SKY/WX    TMP DP  RH WIND       PRES   REMARKS
ST CLOUD       MOSUNNY   79  52  38 SE12      29.87F
6HR MIN TEMP:  79; 6HR MAX TEMP:  83;

SAUK CENTRE    FAIR      78  54  43 SE10      29.85F
PAYNESVILLE    CLOUDY    79  49  35 E7        29.85F
AITKIN         CLOUDY    75  54  46 E6        29.89F
PINE RIVER     CLOUDY    73  55  53 E9        29.91F
BRAINERD       MOSUNNY   77  51  40 S7        29.88F
STAPLES        MOSUNNY   75  48  38 S9        29.86F
LONG PRAIRIE   FAIR      75  52  43 E8        29.86F
LITTLE FALLS   MOSUNNY   77  48  36 SE8       29.87F
LITCHFIELD     CLOUDY    81  54  39 SE13      29.86F
BUFFALO        CLOUDY    78  50  37 E6        29.88F
MAPLE LAKE     CLOUDY    79  55  42 SE5       29.88F
HUTCHINSON     CLOUDY    80  58  46 SE7       29.86F
$$
MNZ037-044-045-052-053-310100-
   East Central Minnesota

CITY           SKY/WX    TMP DP  RH WIND       PRES   REMARKS
PRINCETON      CLOUDY    81  52  36 S8        29.89F
MORA           SUNNY     77  50  38 S8        29.91F
CAMBRIDGE        N/A     81  59  47 SE6       29.88F
RUSH CITY      SUNNY     79  49  35 S3        29.90F
MOOSE LAKE     RAIN      70  52  52 N12G18    29.91R
HINCKLEY       FAIR      77  55  47 S6        29.91S
CLOQUET        LGT RAIN  68  52  56 NW5       29.94R
MCGREGOR       CLOUDY    72  54  53 E7        29.91F
$$
MNZ071>073-080-081-089-090-097-098-310100-
   Southwest Minnesota

CITY           SKY/WX    TMP DP  RH WIND       PRES   REMARKS
MONTEVIDEO     MOSUNNY   82  54  36 S10G18    29.81F
GRANITE FALLS  SUNNY     85  54  34 SE15G21   29.81F
CANBY          MOSUNNY   85  55  35 S12       29.78F
MARSHALL       SUNNY     84  57  39 S16       29.79F
REDWOOD FALLS  SUNNY     83  54  36 SE16G22   29.80F
OLIVIA         MOSUNNY   81  55  41 SE12G18   29.82F
PIPESTONE      SUNNY     81  52  36 S13G18    29.81F
WINDOM         PTSUNNY   82  52  34 CALM      29.83F
WORTHINGTON    MOSUNNY   82  55  39 S15       29.83F
JACKSON        MOSUNNY   81  48  32 S5        29.85F
TRACY          SUNNY     83  54  37 S10G21    29.82S
SLAYTON        MOSUNNY   82  49  31 S15       29.83F
$$
MNZ065>067-074>077-082>085-091>093-310100-
   South Central Minnesota

CITY           SKY/WX    TMP DP  RH WIND       PRES   REMARKS
MANKATO        MOSUNNY   81  54  39 SE12      29.87S
NEW ULM        MOSUNNY   81  55  41 SE10      29.84F
ST JAMES       PTSUNNY   75  52  43 SE14      29.85S
FAIRMONT       CLOUDY    81  55  41 SE15      29.85S
GLENCOE        MOSUNNY   80  60  49 E8        29.85F
FARIBAULT      PTSUNNY   82  52  34 SE9       29.89F
OWATONNA       MOSUNNY   79  54  41 SE6       29.90S
WASECA         MOSUNNY   77  55  47 SE8       29.89F
ALBERT LEA     CLOUDY    79  55  44 SE7       29.90S
$$
MNZ078>079-086>088-094>096-310100-
   Southeast Minnesota

CITY           SKY/WX    TMP DP  RH WIND       PRES   REMARKS
ROCHESTER      MOSUNNY   77  55  46 SE13      29.92F
6HR MIN TEMP:  75; 6HR MAX TEMP:  81;

RED WING       MOSUNNY   81  52  36 SE10      29.89F
STANTON        MOSUNNY   82  48  31 E6        29.88S
DODGE CENTER   MOSUNNY   81  50  34 SE10      29.91F
WINONA         SUNNY     79  48  34 SE6       29.92F
AUSTIN         CLOUDY    77  55  47 SE7       29.90F
PRESTON        CLOUDY    78  50  37 SE10      29.94S
$$
ABBREVIATIONS USED IN REMARKS
   TC - TEMPERATURES IN CELSIUS
  WCI - WIND CHILL INDEX
   HX - HEAT INDEX
  VSB - VISIBILITY
$$




USA.gov is the U.S. government's official web portal to all federal, state and local government web resources and services.